Rugby, ND

9:12 AM CDT on May 26, 2017 (GMT -0500)
Rugby Municipal

Weather History for KRUG - January, 2013

Change the Weather History Date:

Saturday, January 5, 2013

  Actual Average Record
Temperature  
Mean Temperature 9 °F -  
Max Temperature 17 °F 13 °F 53 °F (2012)
Min Temperature 1 °F -3 °F -25 °F (1951)
Degree Days  
Heating Degree Days 56    
Moisture  
Dew Point 8 °F    
Average Humidity 92    
Maximum Humidity 100    
Minimum Humidity 85    
Precipitation  
Precipitation 0.00 in - - ()
Sea Level Pressure  
Sea Level Pressure 30.01 in    
Wind  
Wind Speed 10 mph (NW)    
Max Wind Speed 17 mph    
Max Gust Speed -    
Visibility 8 miles    
Events Fog , Snow    
Averages and records for this station are not official NWS values.
T = Trace of Precipitation, MM = Missing Value Source: NWS Daily Summary

Daily Weather History Graph

Daily Weather History Graph

Search for Another Location

Airport or City:

Trip Planner

Search our weather history database for the weather conditions in past years. The results will help you decide how hot, cold, wet, or windy it might be!

Date:

Astronomy

Jan. 05, 2013 Rise Set
Actual Time 8:30 AM CST 5:00 PM CST
Civil Twilight 7:54 AM CST 5:36 PM CST
Nautical Twilight 7:15 AM CST 6:16 PM CST
Astronomical Twilight 6:37 AM CST 6:54 PM CST
Moon 1:22 AM CST (1/5) 12:06 PM CST (1/5)
Length of Visible Light 9h 42m
Length of Day
8h 29m
Last Quarter, 44% of the Moon is Illuminated
Jan 5
Last Quarter
Jan 11
New
Jan 18
First Quarter
Jan 26
Full
Feb 3
Last Quarter

Hourly Weather History & Observations

Time (CST) Temp. Windchill Dew Point Humidity Pressure Visibility Wind Dir Wind Speed Gust Speed Precip Events Conditions
12:15 AM 5.0 °F -11.6 °F 1.4 °F 85% 29.91 in 10.0 mi ESE 12.7 mph - N/A   Clear
12:35 AM 5.0 °F -9.1 °F 1.4 °F 85% 29.91 in 10.0 mi ESE 9.2 mph - N/A   Clear
1:15 AM 3.2 °F -9.1 °F -0.4 °F 85% 29.91 in 10.0 mi East 6.9 mph - N/A   Clear
1:35 AM 1.4 °F -13.5 °F -0.4 °F 92% 29.91 in 10.0 mi East 9.2 mph - N/A   Clear
1:55 AM 1.4 °F -13.5 °F -0.4 °F 92% 29.90 in 10.0 mi ESE 9.2 mph - N/A   Clear
2:15 AM 1.4 °F -14.5 °F -0.4 °F 92% 29.89 in 10.0 mi East 10.4 mph - N/A   Clear
2:35 AM 1.4 °F -13.5 °F -0.4 °F 92% 29.90 in 10.0 mi East 9.2 mph - N/A   Clear
2:55 AM 3.2 °F -10.3 °F -0.4 °F 85% 29.91 in 10.0 mi East 8.1 mph - N/A   Scattered Clouds
3:15 AM 3.2 °F -10.3 °F 1.4 °F 92% 29.91 in 7.0 mi East 8.1 mph - N/A   Mostly Cloudy
3:35 AM 3.2 °F -11.3 °F -0.4 °F 85% 29.91 in 9.0 mi East 9.2 mph - N/A   Overcast
3:55 AM 1.4 °F -12.5 °F -0.4 °F 92% 29.90 in 2.5 mi ESE 8.1 mph - N/A   Overcast
4:15 AM 3.2 °F -11.3 °F -0.4 °F 85% 29.89 in 1.2 mi ESE 9.2 mph - N/A   Overcast
4:35 AM 5.0 °F -5.6 °F 1.4 °F 85% 29.90 in 0.5 mi East 5.8 mph - N/A Fog Light Freezing Fog
4:55 AM 3.2 °F -10.3 °F -0.4 °F 85% 29.92 in 0.5 mi NNE 8.1 mph - N/A Fog Light Freezing Fog
5:15 AM 5.0 °F -8.1 °F 1.4 °F 85% 29.91 in 0.8 mi NE 8.1 mph - N/A   Overcast
5:35 AM 6.8 °F -4.8 °F 5.0 °F 92% 29.92 in 1.0 mi NE 6.9 mph - N/A Snow Light Snow
5:55 AM 8.6 °F -3.7 °F 6.8 °F 92% 29.91 in 2.5 mi ENE 8.1 mph - N/A Snow Light Snow
6:15 AM 10.4 °F -0.4 °F 8.6 °F 92% 29.91 in 0.5 mi ENE 6.9 mph - N/A Fog Light Freezing Fog
6:35 AM 10.4 °F 2.2 °F 8.6 °F 92% 29.91 in 1.0 mi East 4.6 mph - N/A   Overcast
6:55 AM 12.2 °F 2.9 °F 10.4 °F 92% 29.95 in 1.5 mi North 5.8 mph - N/A   Overcast
7:35 AM 14.0 °F 3.9 °F 12.2 °F 93% 29.97 in 10.0 mi North 6.9 mph - N/A Snow Light Snow
7:55 AM 14.0 °F 2.0 °F 14.0 °F 100% 29.98 in 10.0 mi North 9.2 mph - N/A   Overcast
8:15 AM 14.0 °F 2.9 °F 14.0 °F 100% 29.98 in 10.0 mi NNE 8.1 mph - N/A   Overcast
8:35 AM 15.8 °F 7.2 °F 14.0 °F 93% 30.00 in 10.0 mi North 5.8 mph - N/A   Overcast
8:55 AM 15.8 °F 4.2 °F 14.0 °F 93% 30.02 in 10.0 mi North 9.2 mph - N/A   Overcast
9:15 AM 15.8 °F 2.7 °F 14.0 °F 93% 30.03 in 10.0 mi North 11.5 mph - N/A   Overcast
9:55 AM 15.8 °F 2.1 °F 14.0 °F 93% 30.06 in 10.0 mi North 12.7 mph - N/A   Overcast
10:15 AM 15.8 °F 2.7 °F 14.0 °F 93% 30.07 in 10.0 mi North 11.5 mph - N/A   Overcast
11:15 AM 15.8 °F 6.1 °F 15.8 °F 100% 30.08 in 10.0 mi NW 6.9 mph - N/A   Overcast
11:35 AM 17.6 °F 7.3 °F 15.8 °F 93% 30.08 in 10.0 mi NW 8.1 mph - N/A   Overcast
11:55 AM 17.6 °F 7.3 °F 15.8 °F 93% 30.08 in 10.0 mi WNW 8.1 mph - N/A   Overcast
12:15 PM 17.6 °F 7.3 °F 15.8 °F 93% 30.06 in 10.0 mi NW 8.1 mph - N/A   Overcast
12:35 PM 17.6 °F 6.4 °F 15.8 °F 93% 30.06 in 10.0 mi WNW 9.2 mph - N/A   Overcast
12:55 PM 17.6 °F 5.7 °F 15.8 °F 93% 30.06 in 10.0 mi WNW 10.4 mph - N/A   Overcast
1:15 PM 15.8 °F 2.7 °F 15.8 °F 100% 30.06 in 10.0 mi WNW 11.5 mph - N/A   Overcast
1:35 PM 15.8 °F 2.1 °F 15.8 °F 100% 30.05 in 10.0 mi WNW 12.7 mph - N/A   Overcast
1:55 PM 15.8 °F 2.7 °F 15.8 °F 100% 30.04 in 10.0 mi WNW 11.5 mph - N/A   Overcast
2:15 PM 15.8 °F 1.4 °F 14.0 °F 93% 30.06 in 10.0 mi WNW 13.8 mph - N/A   Overcast
2:35 PM 17.6 °F 3.7 °F 15.8 °F 93% 30.06 in 10.0 mi WNW 13.8 mph - N/A   Overcast
2:55 PM 15.8 °F -0.2 °F 15.8 °F 100% 30.07 in 10.0 mi WNW 17.3 mph - N/A   Overcast
3:15 PM 15.8 °F 3.4 °F 15.8 °F 100% 30.06 in 10.0 mi WNW 10.4 mph - N/A   Overcast
3:35 PM 15.8 °F 2.1 °F 15.8 °F 100% 30.06 in 10.0 mi WNW 12.7 mph - N/A   Overcast
3:55 PM 15.8 °F 1.4 °F 15.8 °F 100% 30.06 in 8.0 mi West 13.8 mph - N/A   Overcast
4:15 PM 15.8 °F 2.1 °F 15.8 °F 100% 30.07 in 9.0 mi West 12.7 mph - N/A   Overcast
4:55 PM 15.8 °F 0.9 °F 14.0 °F 93% 30.08 in 2.0 mi West 15.0 mph - N/A   Overcast
5:15 PM 15.8 °F 0.9 °F 14.0 °F 93% 30.09 in 5.0 mi West 15.0 mph - N/A   Overcast
5:35 PM 14.0 °F 2.9 °F 14.0 °F 100% 30.08 in 9.0 mi West 8.1 mph - N/A   Overcast
5:55 PM 12.2 °F 1.7 °F 10.4 °F 92% 30.09 in 10.0 mi West 6.9 mph - N/A   Mostly Cloudy
6:15 PM 8.6 °F -4.7 °F 6.8 °F 92% 30.07 in 10.0 mi WSW 9.2 mph - N/A   Clear
6:35 PM 6.8 °F -7.8 °F 5.0 °F 92% 30.07 in 10.0 mi WSW 10.4 mph - N/A   Clear
6:55 PM 8.6 °F -5.5 °F 6.8 °F 92% 30.07 in 10.0 mi WSW 10.4 mph - N/A   Clear
7:15 PM 6.8 °F -5.9 °F 5.0 °F 92% 30.06 in 10.0 mi SW 8.1 mph - N/A   Clear
7:35 PM 6.8 °F -7.8 °F 5.0 °F 92% 30.05 in 10.0 mi SW 10.4 mph - N/A   Clear
7:55 PM 6.8 °F -8.6 °F 5.0 °F 92% 30.05 in 10.0 mi WSW 11.5 mph - N/A   Scattered Clouds
8:15 PM 6.8 °F -10.0 °F 5.0 °F 92% 30.05 in 10.0 mi SW 13.8 mph - N/A   Scattered Clouds
8:35 PM 8.6 °F -7.0 °F 5.0 °F 85% 30.04 in 10.0 mi SW 12.7 mph - N/A   Clear
8:55 PM 6.8 °F -9.3 °F 5.0 °F 92% 30.04 in 10.0 mi SW 12.7 mph - N/A   Clear
9:15 PM 5.0 °F -11.6 °F 1.4 °F 85% 30.04 in 10.0 mi WSW 12.7 mph - N/A   Clear
9:35 PM 6.8 °F -10.0 °F 3.2 °F 85% 30.03 in 10.0 mi WSW 13.8 mph - N/A   Clear
9:55 PM 6.8 °F -8.6 °F 5.0 °F 92% 30.03 in 10.0 mi West 11.5 mph - N/A   Clear
10:15 PM 6.8 °F -9.3 °F 5.0 °F 92% 30.03 in 10.0 mi West 12.7 mph - N/A   Clear
10:35 PM 6.8 °F -9.3 °F 5.0 °F 92% 30.04 in 10.0 mi WNW 12.7 mph - N/A   Clear
10:55 PM 6.8 °F -10.7 °F 5.0 °F 92% 30.04 in 10.0 mi WNW 15.0 mph - N/A   Clear
11:15 PM 10.4 °F -5.4 °F 8.6 °F 92% 30.05 in 10.0 mi NW 13.8 mph - N/A   Mostly Cloudy
11:35 PM 12.2 °F -4.3 °F 10.4 °F 92% 30.06 in 10.0 mi WNW 16.1 mph - N/A   Overcast
11:55 PM 14.0 °F -0.8 °F 10.4 °F 86% 30.07 in 10.0 mi WNW 13.8 mph - N/A   Overcast